Location: Venise Bay
(45.0825°N, 73.1481°W)
Time: 06:21:21
(UTC-05:00)

ISS - Pass Details

Date: 23 January 2020
Orbit: 415 x 423 km, 51.6° (Epoch: 27 February)

Event Time Altitude Azimuth Distance (km) Brightness Sun altitude
Rises 17:42:20 0° 226° (SW) 2,369 1.3 -9.8°
Reaches altitude 10° 17:44:27 10° 221° (SW) 1,507 0.0 -10.2°
Maximum altitude 17:47:45 51° 145° (SE) 539 -3.4 -10.8°
Enters shadow 17:50:04 18° 73° (ENE) 1,125 -2.3 -11.2°
